Simultaneous Nadir Overpasses (SNOs) Predictions

Prediction of SNOs between AQUA and METOP-C Satellite Orbit:

Table of predicted SNOs for the next 14.0 days since TLE Epoch: 9/7/2019
Index Date (AQUA) Time (AQUA) Lat,Lon (AQUA) SZA (AQUA ) Date (METOP-C) Time (METOP-C) Lat,Lon (METOP-C) SZA (METOP-C ) Distance(km) Time Diff (sec)
1 09/07/2019 16:01:32 73.71, -65.92 67.69 09/07/2019 16:00:33 73.72, -66.02 67.71 3.35 59
2 09/07/2019 16:50:59 -73.82, 101.49 112.19 09/07/2019 16:51:13 -73.82, 101.54 112.19 1.73 14
3 09/07/2019 17:40:35 74.23, -91.80 68.26 09/07/2019 17:41:44 74.24, -90.08 68.23 51.99 69
4 09/10/2019 11:35:46 73.73, 0.48 68.76 09/10/2019 11:34:54 73.73, 0.40 68.77 2.39 52
5 09/10/2019 12:25:13 -73.83, 167.90 111.13 09/10/2019 12:25:34 -73.84, 167.99 111.12 2.73 21
6 09/10/2019 13:14:55 74.55, -26.14 69.66 09/10/2019 13:15:59 74.54, -22.90 69.57 96.18 64
7 09/13/2019 07:10:01 73.75, 66.86 69.85 09/13/2019 07:09:16 73.73, 66.83 69.84 2.42 45
8 09/13/2019 07:59:27 -73.80,-125.58 110.10 09/13/2019 07:59:57 -73.80,-125.69 110.09 3.33 30
9 09/16/2019 02:44:15 73.73, 133.35 70.90 09/16/2019 02:43:38 73.74, 133.25 70.92 3.33 37
10 09/16/2019 03:33:42 -73.82, -59.20 109.00 09/16/2019 03:34:19 -73.82, -59.25 109.00 1.61 37
11 09/18/2019 22:18:29 73.77,-160.29 72.02 09/18/2019 22:17:59 73.75,-160.32 72.01 2.45 30
12 09/18/2019 23:07:56 -73.85, 7.17 107.88 09/18/2019 23:08:40 -73.83, 7.19 107.91 2.30 44




NCC Satellite Simultaneous Nadir Overpasses (SNOs) Prediction Service
